User: anonymous   Login
Location: Barcelona
(41.3830°N, 2.1830°E)
Time: 05:37:48
(UTC+02:00)
Language:

ESTCUBE 1 - Orbit

View from above orbital plane
View from above orbital plane
View from above satellite
View from above satellite

Ground track
Ground track

The orbit data is extracted from the following two-line orbital elements,

1 39161U 13021C   19141.78849674  .00000149  00000-0  31465-4 0  9993
2 39161  97.9874 227.1516 0010841  58.2735 301.9516 14.72193959324266
Epoch (UTC): 21 May 2019 18:55:26
Eccentricity: 0.0010841
inclination: 97.9874°
perigee height: 646 km
apogee height: 662 km
right ascension of ascending node: 227.1516°
argument of perigee: 58.2735°
revolutions per day: 14.72193959
mean anomaly at epoch: 301.9516°
orbit number at epoch: 32426

The dashed part of the orbit path shows where the satellite is in the earth's shadow,  

DLR